Regional Weather Roundup
Issued by NWS

Home | Current Version | Previous Version | Text Only | Print | Product List | Glossary Off
Versions: 1 2 3 4 5 6 7 8 9 10 11 12 13 14 15 16 17 18 19 20 21 22 23 24 25 26 27 28 29

000
ASUS45 KGTF 171310
RWRMT
MONTANA HOURLY WEATHER ROUNDUP
NATIONAL WEATHER SERVICE GREAT FALLS MT
700 AM MDT FRI APR 17 2015

NOTE: "FAIR" INDICATES FEW OR NO CLOUDS BELOW 12000 FEET WITH NO
SIGNIFICANT WEATHER AND/OR OBSTRUCTIONS TO VISIBILITY.

MTZ001>007-043-171400-
WEST OF THE DIVIDE

CITY           SKY/WX    TMP DP  RH WIND       PRES   REMARKS
KALISPELL      SUNNY     26  24  92 VRB3      30.23S
MISSOULA       CLEAR     29  25  85 CALM      30.28R
BUTTE          CLEAR     23  19  85 S5        30.26R
DEER LODGE       N/A     27  21  80 W3        30.30R
EUREKA           N/A     28  27  93 CALM      30.26S
HAMILTON         N/A     32  25  74 CALM      30.25S
LIBBY            N/A     28  27  93 CALM      30.27R VSB 1
$$

MTZ008-052>055-171400-
SOUTHWEST MONTANA

CITY           SKY/WX    TMP DP  RH WIND       PRES   REMARKS
BOZEMAN        CLEAR     24  21  88 CALM      30.26R
DILLON         CLEAR     29  22  75 S12       30.23S WCI  19
$$

MTZ009-010-012-014-046-048-049-054-171400-
EAST SLOPES AND CENTRAL MONTANA

CITY           SKY/WX    TMP DP  RH WIND       PRES   REMARKS
CUT BANK       CLEAR     34  25  69 NW12      30.21S WCI  25
GREAT FALLS    CLEAR     36  26  67 SW10      30.20R WCI  28
MALMSTROM AFB  CLEAR     39  27  63 W10       30.20S
HELENA         CLEAR     29  23  78 NW6       30.25R WCI  23
$$

MTZ011-013-016-021-045-047-050-051-171400-
NORTH CENTRAL MONTANA

CITY           SKY/WX    TMP DP  RH WIND       PRES   REMARKS
HAVRE          CLEAR     33  29  85 NW10      30.19R WCI  25
LEWISTOWN      CLEAR     31  23  72 SE6       30.20R WCI  25
FORT BENTON      N/A     37  28  70 SW7       30.20R
$$

MTZ017>020-022>042-056>058-061-062-171400-
EASTERN PLAINS

CITY           SKY/WX    TMP DP  RH WIND       PRES   REMARKS
BAKER          CLEAR     29  23  78 CALM      30.23R
BILLINGS       PTCLDY    35  28  75 SW10      30.21S WCI  27
GLASGOW        CLEAR     36  24  62 E8        30.16R WCI  30
JORDAN           N/A     27  22  81 CALM      30.18R
LIVINGSTON     CLEAR     25  20  81 CALM      30.23R
MILES CITY     CLEAR     34  23  64 SE12      30.22R WCI  25
SIDNEY         CLEAR     30  21  69 CALM      30.19S
WOLF POINT     CLEAR     30  23  75 CALM      30.19R
BIG TIMBER       N/A     32  25  74 SW8       30.24R WCI  25
FORSYTH          N/A     34  30  86 CALM      30.22R
PLENTYWOOD       N/A     43  18  36 N3        30.15R
POPLAR           N/A     34  25  69 CALM      30.19R
$$

REGIONAL REPORTS...DAKOTAS

CITY           SKY/WX    TMP DP  RH WIND       PRES   REMARKS
WILLISTON      CLEAR     36  23  59 S5        30.17R
MINOT          SUNNY     43  19  38 SW12      30.13S
DICKINSON      CLEAR     37  25  61 W10       30.19R WCI  30
BEACH          FAIR      32  25  74 CALM      30.22R
CROSBY         FAIR      41  25  52 SW7       30.13R
WATFORD CITY   FAIR      34  19  55 W5        30.17R
BISMARCK       MOSUNNY   32  25  75 CALM      30.21R
GRAND FORKS    SUNNY     39  27  62 SW3       30.13F
FARGO          SUNNY     41  25  53 S6        30.17S
BUFFALO SD       N/A     33  23  66 NW6       30.15S WCI  28
RAPID CITY     CLOUDY    45  30  55 N10       30.20S
$$

REGIONAL REPORTS...WYOMING/IDAHO/WASHINGTON

CITY           SKY/WX    TMP DP  RH WIND       PRES   REMARKS
GILLETTE       PTCLDY    28  24  85 CALM      30.21S
SHERIDAN       CLEAR     27  23  85 CALM      30.22R
BUFFALO WY     PTCLDY    36  25  64 NW8       30.21R WCI  30
CODY           PTCLDY    32  28  86 S9        30.23R WCI  24
YELLOWSTONE LA   N/A     19  15  84 CALM      30.26F
IDAHO FALLS    PTCLDY    26  23  88 N3        30.20R
SALMON         CLEAR     25  21  86 CALM      30.26R
BOISE          CLEAR     40  30  67 SE7       30.17R
SPOKANE        PTCLDY    39  32  76 CALM      30.21F
$$

REGIONAL REPORTS...ALBERTA

CITY           SKY/WX    TMP DP  RH WIND       PRES   REMARKS
EDMONTON       PTCLDY    36  28  75 S5        30.14F
CALGARY        PTCLDY    36  27  69 SW3       30.21F
LETHBRIDGE     CLEAR     30  27  86 W14       30.24F WCI  20
MEDICINE HAT   CLEAR     36  30  80 NE6       30.22R WCI  31
$$

REGIONAL REPORTS...SASKATCHEWAN

CITY           SKY/WX    TMP DP  RH WIND       PRES   REMARKS
SWIFT CURRENT  CLEAR     41  27  56 N5        30.19R
REGINA         PTCLDY    37  30  75 NW12      30.15R WCI  30
SASKATOON      MOCLDY    36  32  87 NW9       30.20R WCI  29
$$



USA.gov is the U.S. government's official web portal to all federal, state and local government web resources and services.